Location: Unspecified
(0.0000°N, 0.0000°E)
Time: 13:31:56
(UTC+01:00)

Hubble Space Telescope - Visible Passes

Search period start: 06 March 2015 00:00
Search period end: 16 March 2015 00:00
Orbit: 543 x 547 km, 28.5° (Epoch: 05 March)

Date Brightness Start Highest point End Pass type
(mag) Time Alt. Az. Time Alt. Az. Time Alt. Az.
06 Mar 2.5 19:49:26 10° SSW 19:52:29 20° SSE 19:55:00 12° ESE visible
06 Mar 3.7 21:29:42 10° WSW 21:30:31 15° WSW 21:30:31 15° WSW visible
07 Mar 2.0 19:40:45 10° SSW 19:44:20 27° SSE 19:47:38 12° E visible
07 Mar 3.3 21:21:40 10° WSW 21:23:09 20° W 21:23:09 20° W visible
08 Mar 1.5 19:32:13 10° SW 19:36:09 40° SSE 19:40:05 10° E visible
08 Mar 3.0 21:13:46 10° W 21:15:50 23° WNW 21:15:50 23° WNW visible
09 Mar 3.0 21:06:04 10° W 21:08:32 20° NW 21:08:32 20° NW visible
10 Mar 3.4 05:40:30 10° N 05:42:20 13° NNE 05:44:20 10° NE visible
10 Mar 3.2 20:58:38 10° WNW 21:01:09 15° NNW 21:01:15 15° NNW visible
11 Mar 2.9 05:33:09 16° N 05:34:12 18° NNE 05:37:08 10° ENE visible
11 Mar 3.5 20:51:57 10° NW 20:53:02 11° NNW 20:53:57 10° NNW visible
12 Mar 2.5 05:25:50 25° NNE 05:26:01 25° NNE 05:29:32 10° E visible
13 Mar 2.2 05:18:32 34° NE 05:18:32 34° NE 05:21:41 10° E visible
14 Mar 2.5 05:11:14 32° E 05:11:14 32° E 05:13:40 10° ESE visible
14 Mar 2.3 06:47:34 10° W 06:50:56 23° SSW 06:54:16 10° SSE visible
15 Mar 3.0 05:03:54 23° ESE 05:03:54 23° ESE 05:05:31 10° ESE visible
15 Mar 2.7 06:40:02 10° WSW 06:42:45 16° SSW 06:45:23 10° SSE visible
